| time (UTC) | temp F | wind direction | speed knots | gust knots | rain 1hr in | rain 24hr in | rain mn in | humidity % | barometer mb |
| 20260510214003 | 46 | 25 | 5.2 | 13.9 | 0.00 | 0.00 | 0.00 | 79 | 1014.4 |
| 20260510213723 | 46 | 31 | 4.3 | 13.9 | 0.00 | 0.00 | 0.00 | 79 | 1014.1 |
| 20260510213005 | 46 | 16 | 5.2 | 18.2 | 0.00 | 0.00 | 0.00 | 79 | 1014.1 |
| 20260510212718 | 47 | 25 | 6.1 | 18.2 | 0.00 | 0.00 | 0.00 | 78 | 1014.0 |
| 20260510212219 | 47 | 19 | 7.0 | 15.6 | 0.00 | 0.00 | 0.00 | 78 | 1014.0 |
| 20260510211505 | 47 | 357 | 7.8 | 15.6 | 0.00 | 0.00 | 0.00 | 77 | 1014.1 |
| 20260510211005 | 47 | 20 | 7.0 | 15.6 | 0.00 | 0.00 | 0.00 | 76 | 1014.2 |
| 20260510210503 | 47 | 28 | 6.1 | 13.9 | 0.00 | 0.00 | 0.00 | 76 | 1014.3 |
| 20260510210005 | 47 | 28 | 5.2 | 13.9 | 0.00 | 0.00 | 0.00 | 76 | 1014.2 |
| 20260510205506 | 47 | 29 | 5.2 | 18.2 | 0.00 | 0.00 | 0.00 | 76 | 1014.5 |
| 20260510205005 | 47 | 17 | 6.1 | 18.2 | 0.00 | 0.00 | 0.00 | 76 | 1014.3 |
| 20260510204505 | 47 | 12 | 4.3 | 15.6 | 0.00 | 0.00 | 0.00 | 76 | 1014.5 |
| 20260510204219 | 47 | 5 | 5.2 | 15.6 | 0.00 | 0.00 | 0.00 | 76 | 1014.0 |
| 20260510203718 | 47 | 11 | 4.3 | 15.6 | 0.00 | 0.00 | 0.00 | 77 | 1014.1 |
| 20260510203005 | 47 | 8 | 5.2 | 15.6 | 0.00 | 0.00 | 0.00 | 77 | 1014.0 |
| 20260510202503 | 47 | 14 | 6.1 | 13.9 | 0.00 | 0.00 | 0.00 | 77 | 1014.1 |
| 20260510202005 | 48 | 29 | 5.2 | 13.9 | 0.00 | 0.00 | 0.00 | 77 | 1013.9 |
| 20260510201505 | 48 | 37 | 5.2 | 15.6 | 0.00 | 0.00 | 0.00 | 77 | 1013.9 |
| 20260510201005 | 48 | 46 | 6.1 | 15.6 | 0.00 | 0.00 | 0.00 | 76 | 1014.2 |
| 20260510200718 | 48 | 44 | 6.1 | 15.6 | 0.00 | 0.00 | 0.00 | 76 | 1014.1 |
| 20260510200004 | 48 | 15 | 6.1 | 20.0 | 0.00 | 0.00 | 0.00 | 75 | 1014.1 |
| 20260510195505 | 48 | 2 | 7.0 | 20.0 | 0.00 | 0.00 | 0.00 | 75 | 1014.0 |
| 20260510195003 | 49 | 17 | 7.0 | 18.2 | 0.00 | 0.00 | 0.00 | 75 | 1013.9 |
| 20260510194503 | 49 | 25 | 7.8 | 21.7 | 0.00 | 0.00 | 0.00 | 75 | 1014.2 |
| 20260510194217 | 49 | 15 | 8.7 | 21.7 | 0.00 | 0.00 | 0.00 | 75 | 1014.1 |
| 20260510193503 | 49 | 21 | 7.8 | 20.0 | 0.00 | 0.00 | 0.00 | 76 | 1013.9 |
| 20260510193007 | 49 | 12 | 7.8 | 26.1 | 0.00 | 0.00 | 0.00 | 76 | 1013.8 |
| 20260510192506 | 50 | 16 | 9.6 | 26.1 | 0.00 | 0.00 | 0.00 | 76 | 1014.1 |
| 20260510192005 | 50 | 19 | 9.6 | 21.7 | 0.00 | 0.00 | 0.00 | 76 | 1014.1 |
| 20260510191720 | 50 | 12 | 9.6 | 21.7 | 0.00 | 0.00 | 0.00 | 76 | 1013.8 |
| 20260510191005 | 50 | 17 | 9.6 | 29.5 | 0.00 | 0.00 | 0.00 | 76 | 1014.1 |
| 20260510190505 | 51 | 20 | 9.6 | 29.5 | 0.00 | 0.00 | 0.00 | 76 | 1013.9 |
| 20260510190005 | 51 | 25 | 8.7 | 26.1 | 0.00 | 0.00 | 0.00 | 76 | 1013.9 |
| 20260510185505 | 51 | 36 | 9.6 | 27.8 | 0.00 | 0.00 | 0.00 | 76 | 1014.1 |
| 20260510185005 | 51 | 39 | 12.2 | 27.8 | 0.00 | 0.00 | 0.00 | 75 | 1014.1 |
| 20260510184503 | 51 | 35 | 10.4 | 32.2 | 0.00 | 0.00 | 0.00 | 75 | 1014.0 |
| 20260510184005 | 51 | 23 | 9.6 | 32.2 | 0.00 | 0.00 | 0.00 | 75 | 1013.7 |
| 20260510183503 | 52 | 18 | 9.6 | 21.7 | 0.00 | 0.00 | 0.00 | 74 | 1013.8 |
| 20260510183005 | 52 | 37 | 10.4 | 21.7 | 0.00 | 0.00 | 0.00 | 75 | 1013.8 |
| 20260510182719 | 52 | 42 | 11.3 | 21.7 | 0.00 | 0.00 | 0.00 | 75 | 1013.9 |
| 20260510182005 | 52 | 20 | 11.3 | 29.5 | 0.00 | 0.00 | 0.00 | 74 | 1014.0 |
| 20260510181505 | 52 | 16 | 9.6 | 29.5 | 0.00 | 0.00 | 0.00 | 74 | 1014.1 |
| 20260510181005 | 52 | 17 | 9.6 | 32.2 | 0.00 | 0.00 | 0.00 | 74 | 1014.1 |
| 20260510180503 | 52 | 24 | 10.4 | 32.2 | 0.00 | 0.00 | 0.00 | 74 | 1014.0 |
| 20260510180005 | 53 | 36 | 9.6 | 27.8 | 0.00 | 0.00 | 0.00 | 73 | 1014.1 |
| 20260510175503 | 53 | 47 | 10.4 | 32.2 | 0.00 | 0.00 | 0.00 | 73 | 1013.8 |
| 20260510175003 | 53 | 37 | 12.2 | 32.2 | 0.00 | 0.00 | 0.00 | 72 | 1014.1 |
| 20260510174719 | 53 | 32 | 12.2 | 32.2 | 0.00 | 0.00 | 0.00 | 72 | 1013.9 |
| 20260510174005 | 54 | 24 | 9.6 | 27.8 | 0.00 | 0.00 | 0.00 | 73 | 1014.1 |
| 20260510173505 | 54 | 35 | 10.4 | 29.5 | 0.00 | 0.00 | 0.00 | 72 | 1013.8 |
| 20260510173220 | 54 | 31 | 11.3 | 29.5 | 0.00 | 0.00 | 0.00 | 73 | 1014.1 |
| 20260510172505 | 54 | 17 | 10.4 | 26.1 | 0.00 | 0.00 | 0.00 | 73 | 1013.9 |
| 20260510172003 | 54 | 27 | 11.3 | 26.1 | 0.00 | 0.00 | 0.00 | 72 | 1013.9 |
| 20260510171505 | 54 | 27 | 10.4 | 29.5 | 0.00 | 0.00 | 0.00 | 73 | 1014.0 |
| 20260510171005 | 54 | 21 | 8.7 | 29.5 | 0.00 | 0.00 | 0.00 | 73 | 1014.0 |
| 20260510170719 | 54 | 18 | 8.7 | 29.5 | 0.00 | 0.00 | 0.00 | 72 | 1014.1 |
| 20260510170004 | 55 | 29 | 10.4 | 26.1 | 0.00 | 0.00 | 0.00 | 72 | 1014.1 |
| 20260510165505 | 54 | 33 | 10.4 | 26.1 | 0.00 | 0.00 | 0.00 | 72 | 1014.1 |
| 20260510165005 | 55 | 38 | 11.3 | 27.8 | 0.00 | 0.00 | 0.00 | 72 | 1014.1 |
| 20260510164719 | 54 | 30 | 12.2 | 27.8 | 0.00 | 0.00 | 0.00 | 73 | 1014.0 |
| 20260510164003 | 55 | 19 | 11.3 | 32.2 | 0.00 | 0.00 | 0.00 | 72 | 1014.0 |
| 20260510163503 | 55 | 26 | 11.3 | 32.2 | 0.00 | 0.00 | 0.00 | 73 | 1014.4 |
| 20260510163004 | 55 | 29 | 9.6 | 29.5 | 0.00 | 0.00 | 0.00 | 72 | 1014.3 |
| 20260510162505 | 55 | 35 | 10.4 | 29.5 | 0.00 | 0.00 | 0.00 | 71 | 1014.4 |
| 20260510162003 | 56 | 37 | 8.7 | 23.5 | 0.00 | 0.00 | 0.00 | 72 | 1014.4 |
| 20260510161503 | 56 | 27 | 8.7 | 23.5 | 0.00 | 0.00 | 0.00 | 71 | 1014.4 |
| 20260510161003 | 56 | 16 | 11.3 | 32.2 | 0.00 | 0.00 | 0.00 | 71 | 1014.6 |
| 20260510160503 | 56 | 17 | 10.4 | 32.2 | 0.00 | 0.00 | 0.00 | 70 | 1014.7 |
| 20260510160005 | 56 | 23 | 10.4 | 26.1 | 0.00 | 0.00 | 0.00 | 71 | 1014.7 |
| 20260510155505 | 56 | 14 | 9.6 | 26.1 | 0.00 | 0.00 | 0.00 | 69 | 1014.7 |
| 20260510155003 | 56 | 8 | 8.7 | 21.7 | 0.00 | 0.00 | 0.00 | 70 | 1014.8 |
| 20260510154503 | 56 | 38 | 8.7 | 20.0 | 0.00 | 0.00 | 0.00 | 70 | 1014.9 |
| 20260510154003 | 56 | 23 | 7.8 | 20.0 | 0.00 | 0.00 | 0.00 | 71 | 1014.9 |
| 20260510153505 | 56 | 7 | 10.4 | 23.5 | 0.00 | 0.00 | 0.00 | 70 | 1015.0 |
| 20260510153005 | 56 | 5 | 11.3 | 23.5 | 0.00 | 0.00 | 0.00 | 71 | 1014.9 |
| 20260510152503 | 56 | 21 | 13.0 | 26.1 | 0.00 | 0.00 | 0.00 | 71 | 1015.0 |
| 20260510152003 | 55 | 9 | 11.3 | 26.1 | 0.00 | 0.00 | 0.00 | 72 | 1015.1 |
| 20260510151503 | 56 | 359 | 9.6 | 21.7 | 0.00 | 0.00 | 0.00 | 70 | 1015.1 |
| 20260510151005 | 56 | 20 | 10.4 | 26.1 | 0.00 | 0.00 | 0.00 | 71 | 1015.0 |
| 20260510150505 | 56 | 24 | 10.4 | 26.1 | 0.00 | 0.00 | 0.00 | 68 | 1015.0 |
| 20260510150217 | 56 | 36 | 11.3 | 32.2 | 0.00 | 0.00 | 0.00 | 69 | 1015.0 |
| 20260510145506 | 56 | 50 | 10.4 | 32.2 | 0.00 | 0.00 | 0.00 | 71 | 1015.2 |
| 20260510145005 | 56 | 36 | 8.7 | 26.1 | 0.00 | 0.00 | 0.00 | 72 | 1015.1 |
| 20260510144505 | 56 | 25 | 7.8 | 26.1 | 0.00 | 0.00 | 0.00 | 73 | 1015.3 |
| 20260510144003 | 56 | 36 | 8.7 | 23.5 | 0.00 | 0.00 | 0.00 | 72 | 1015.3 |
| 20260510143505 | 56 | 47 | 7.8 | 21.7 | 0.00 | 0.00 | 0.00 | 72 | 1015.3 |
| 20260510143005 | 57 | 35 | 8.7 | 21.7 | 0.00 | 0.00 | 0.00 | 72 | 1015.3 |
| 20260510142503 | 57 | 33 | 8.7 | 26.1 | 0.00 | 0.00 | 0.00 | 72 | 1015.5 |
| 20260510142005 | 57 | 32 | 11.3 | 26.1 | 0.00 | 0.00 | 0.00 | 71 | 1015.4 |
| 20260510141505 | 56 | 28 | 12.2 | 23.5 | 0.00 | 0.00 | 0.00 | 72 | 1015.7 |
| 20260510141219 | 57 | 32 | 10.4 | 23.5 | 0.00 | 0.00 | 0.00 | 72 | 1015.6 |
| 20260510140505 | 56 | 31 | 10.4 | 27.8 | 0.00 | 0.00 | 0.00 | 72 | 1015.8 |
| 20260510140005 | 56 | 33 | 11.3 | 27.8 | 0.00 | 0.00 | 0.00 | 72 | 1015.6 |
| 20260510135719 | 56 | 13 | 9.6 | 27.8 | 0.00 | 0.00 | 0.00 | 73 | 1015.7 |
| 20260510135005 | 56 | 14 | 8.7 | 20.0 | 0.00 | 0.00 | 0.00 | 73 | 1015.8 |
| 20260510134717 | 55 | 26 | 9.6 | 20.0 | 0.00 | 0.00 | 0.00 | 73 | 1015.9 |
| 20260510134005 | 55 | 28 | 10.4 | 21.7 | 0.00 | 0.00 | 0.00 | 74 | 1015.8 |
| 20260510133503 | 55 | 39 | 8.7 | 21.7 | 0.00 | 0.00 | 0.00 | 73 | 1015.9 |
| 20260510133005 | 56 | 43 | 7.8 | 21.7 | 0.00 | 0.00 | 0.00 | 72 | 1016.0 |
| 20260510132506 | 56 | 39 | 9.6 | 21.7 | 0.00 | 0.00 | 0.00 | 72 | 1015.8 |
| 20260510132005 | 56 | 35 | 9.6 | 20.0 | 0.00 | 0.00 | 0.00 | 73 | 1015.8 |
| 20260510131505 | 56 | 40 | 7.0 | 18.2 | 0.00 | 0.00 | 0.00 | 73 | 1015.9 |
| 20260510131005 | 56 | 35 | 7.0 | 18.2 | 0.00 | 0.00 | 0.00 | 73 | 1015.8 |
| 20260510130717 | 55 | 27 | 7.8 | 18.2 | 0.00 | 0.00 | 0.00 | 74 | 1015.9 |
| 20260510130005 | 55 | 17 | 8.7 | 15.6 | 0.00 | 0.00 | 0.00 | 73 | 1015.9 |
| 20260510125505 | 56 | 22 | 7.0 | 18.2 | 0.00 | 0.00 | 0.00 | 74 | 1015.8 |
| 20260510125218 | 56 | 27 | 7.0 | 18.2 | 0.00 | 0.00 | 0.00 | 74 | 1016.0 |
| 20260510124506 | 55 | 24 | 7.8 | 20.0 | 0.00 | 0.00 | 0.00 | 75 | 1016.2 |
| 20260510124005 | 54 | 7 | 9.6 | 27.8 | 0.00 | 0.00 | 0.00 | 75 | 1016.1 |
| 20260510123505 | 54 | 17 | 10.4 | 27.8 | 0.00 | 0.00 | 0.00 | 75 | 1016.2 |
| 20260510123005 | 54 | 32 | 9.6 | 26.1 | 0.00 | 0.00 | 0.00 | 75 | 1016.0 |
| 20260510122717 | 54 | 22 | 8.7 | 26.1 | 0.00 | 0.00 | 0.00 | 75 | 1016.3 |
| 20260510122218 | 55 | 18 | 7.0 | 26.1 | 0.00 | 0.00 | 0.00 | 75 | 1016.2 |
| 20260510121503 | 54 | 38 | 7.8 | 15.6 | 0.00 | 0.00 | 0.00 | 75 | 1015.8 |
| 20260510121218 | 55 | 34 | 7.8 | 15.6 | 0.00 | 0.00 | 0.00 | 75 | 1016.4 |
| 20260510120503 | 55 | 26 | 7.0 | 20.0 | 0.00 | 0.00 | 0.00 | 75 | 1016.2 |
| 20260510120005 | 55 | 29 | 8.7 | 20.0 | 0.00 | 0.00 | 0.00 | 75 | 1016.2 |
| 20260510115717 | 54 | 26 | 10.4 | 20.0 | 0.00 | 0.00 | 0.00 | 75 | 1016.3 |
| 20260510115005 | 54 | 15 | 8.7 | 18.2 | 0.00 | 0.00 | 0.00 | 75 | 1016.4 |
| 20260510114505 | 54 | 22 | 7.8 | 18.2 | 0.00 | 0.00 | 0.00 | 75 | 1016.2 |
| 20260510114003 | 55 | 28 | 7.0 | 20.0 | 0.00 | 0.00 | 0.00 | 75 | 1016.3 |
| 20260510113505 | 54 | 36 | 8.7 | 20.0 | 0.00 | 0.00 | 0.00 | 75 | 1016.3 |
| 20260510113218 | 54 | 36 | 8.7 | 18.2 | 0.00 | 0.00 | 0.00 | 75 | 1016.3 |
| 20260510112503 | 54 | 48 | 7.0 | 18.2 | 0.00 | 0.00 | 0.00 | 75 | 1016.4 |
| 20260510112003 | 54 | 34 | 7.8 | 18.2 | 0.00 | 0.00 | 0.00 | 75 | 1016.4 |
| 20260510111505 | 54 | 36 | 7.8 | 20.0 | 0.00 | 0.00 | 0.00 | 75 | 1016.5 |
| 20260510111005 | 54 | 38 | 6.1 | 20.0 | 0.00 | 0.00 | 0.00 | 76 | 1016.7 |
| 20260510110503 | 54 | 29 | 7.8 | 18.2 | 0.00 | 0.00 | 0.00 | 76 | 1016.8 |
| 20260510110005 | 54 | 20 | 8.7 | 20.0 | 0.00 | 0.00 | 0.00 | 75 | 1016.6 |
| 20260510105505 | 54 | 11 | 7.8 | 20.0 | 0.00 | 0.00 | 0.00 | 76 | 1016.8 |
| 20260510105005 | 53 | 22 | 8.7 | 21.7 | 0.00 | 0.00 | 0.00 | 76 | 1016.8 |
| 20260510104504 | 53 | 30 | 8.7 | 21.7 | 0.00 | 0.00 | 0.00 | 76 | 1016.8 |
| 20260510104003 | 53 | 35 | 7.0 | 21.7 | 0.00 | 0.00 | 0.00 | 77 | 1016.8 |
| 20260510103503 | 53 | 36 | 6.1 | 20.0 | 0.00 | 0.00 | 0.00 | 77 | 1016.8 |
| 20260510103005 | 54 | 30 | 6.1 | 20.0 | 0.00 | 0.00 | 0.00 | 77 | 1017.0 |
| 20260510102503 | 53 | 28 | 7.0 | 20.0 | 0.00 | 0.00 | 0.00 | 77 | 1017.0 |
| 20260510102005 | 53 | 22 | 7.8 | 20.0 | 0.00 | 0.00 | 0.00 | 77 | 1017.0 |
| 20260510101503 | 53 | 27 | 7.0 | 15.6 | 0.00 | 0.00 | 0.00 | 77 | 1017.2 |
| 20260510101005 | 53 | 27 | 7.8 | 18.2 | 0.00 | 0.00 | 0.00 | 77 | 1017.3 |
| 20260510100503 | 53 | 30 | 7.8 | 18.2 | 0.00 | 0.00 | 0.00 | 77 | 1017.1 |
| 20260510100003 | 53 | 29 | 7.8 | 18.2 | 0.00 | 0.00 | 0.00 | 78 | 1016.9 |
| 20260510095718 | 53 | 22 | 7.8 | 15.6 | 0.00 | 0.00 | 0.00 | 78 | 1016.8 |
| 20260510095005 | 53 | 44 | 7.0 | 13.9 | 0.00 | 0.00 | 0.00 | 77 | 1017.0 |
| 20260510094505 | 53 | 47 | 6.1 | 13.9 | 0.00 | 0.00 | 0.00 | 78 | 1017.1 |
| 20260510094003 | 53 | 41 | 6.1 | 18.2 | 0.00 | 0.00 | 0.00 | 78 | 1017.2 |
| 20260510093505 | 53 | 31 | 7.0 | 18.2 | 0.00 | 0.00 | 0.00 | 78 | 1016.9 |
| 20260510093219 | 53 | 31 | 7.0 | 20.0 | 0.00 | 0.00 | 0.00 | 78 | 1017.2 |
| 20260510092718 | 53 | 26 | 7.0 | 20.0 | 0.00 | 0.00 | 0.00 | 79 | 1017.1 |
| 20260510092217 | 53 | 49 | 6.1 | 13.9 | 0.00 | 0.00 | 0.00 | 78 | 1017.0 |
| 20260510091505 | 53 | 26 | 7.0 | 15.6 | 0.00 | 0.00 | 0.00 | 79 | 1017.2 |
| 20260510091003 | 53 | 42 | 6.1 | 15.6 | 0.00 | 0.00 | 0.00 | 78 | 1017.2 |
| 20260510090503 | 53 | 50 | 7.0 | 15.6 | 0.00 | 0.00 | 0.00 | 78 | 1017.0 |
| 20260510090219 | 54 | 35 | 7.0 | 15.6 | 0.00 | 0.00 | 0.00 | 78 | 1017.1 |
| 20260510085505 | 52 | 35 | 6.1 | 18.2 | 0.00 | 0.00 | 0.00 | 79 | 1017.0 |
| 20260510085005 | 52 | 30 | 7.0 | 18.2 | 0.00 | 0.00 | 0.00 | 80 | 1017.1 |
| 20260510084505 | 52 | 26 | 7.0 | 20.0 | 0.00 | 0.00 | 0.00 | 81 | 1017.3 |
| 20260510084216 | 51 | 29 | 7.0 | 20.0 | 0.00 | 0.00 | 0.00 | 80 | 1017.2 |
| 20260510083503 | 51 | 42 | 4.3 | 18.2 | 0.00 | 0.00 | 0.00 | 80 | 1017.0 |
| 20260510083005 | 52 | 32 | 5.2 | 15.6 | 0.00 | 0.00 | 0.00 | 80 | 1017.2 |
| 20260510082505 | 52 | 30 | 7.0 | 18.2 | 0.00 | 0.00 | 0.00 | 81 | 1017.1 |
| 20260510082005 | 52 | 17 | 7.0 | 18.2 | 0.00 | 0.00 | 0.00 | 81 | 1017.3 |
| 20260510081717 | 52 | 24 | 5.2 | 18.2 | 0.00 | 0.00 | 0.00 | 80 | 1017.4 |
| 20260510081005 | 52 | 53 | 3.5 | 12.2 | 0.00 | 0.00 | 0.00 | 82 | 1017.2 |
| 20260510080503 | 51 | 44 | 4.3 | 12.2 | 0.00 | 0.00 | 0.00 | 82 | 1017.1 |
| 20260510080218 | 51 | 37 | 4.3 | 12.2 | 0.00 | 0.00 | 0.00 | 82 | 1017.1 |
| 20260510075505 | 51 | 41 | 6.1 | 18.2 | 0.00 | 0.00 | 0.00 | 82 | 1017.0 |
| 20260510075005 | 51 | 33 | 8.7 | 21.7 | 0.00 | 0.00 | 0.00 | 82 | 1017.0 |
| 20260510074719 | 51 | 39 | 9.6 | 21.7 | 0.00 | 0.00 | 0.00 | 83 | 1017.2 |
| 20260510074218 | 51 | 43 | 10.4 | 21.7 | 0.00 | 0.00 | 0.00 | 83 | 1017.1 |
| 20260510073503 | 51 | 31 | 7.8 | 18.2 | 0.00 | 0.00 | 0.00 | 83 | 1016.8 |
| 20260510073003 | 51 | 27 | 6.1 | 15.6 | 0.00 | 0.00 | 0.00 | 83 | 1017.0 |
| 20260510072508 | 51 | 26 | 7.0 | 18.2 | 0.00 | 0.00 | 0.00 | 83 | 1016.8 |
| 20260510072005 | 51 | 42 | 7.0 | 18.2 | 0.00 | 0.00 | 0.00 | 83 | 1017.0 |
| 20260510071505 | 51 | 44 | 7.0 | 15.6 | 0.00 | 0.00 | 0.00 | 84 | 1017.0 |
| 20260510071005 | 51 | 42 | 7.0 | 15.6 | 0.00 | 0.00 | 0.00 | 84 | 1016.9 |
| 20260510070503 | 51 | 47 | 6.1 | 20.0 | 0.00 | 0.00 | 0.00 | 85 | 1016.7 |
| 20260510070005 | 51 | 46 | 7.0 | 20.0 | 0.00 | 0.00 | 0.00 | 85 | 1017.0 |
| 20260510065505 | 51 | 37 | 7.0 | 15.6 | 0.00 | 0.00 | 0.00 | 86 | 1016.9 |
| 20260510065003 | 50 | 28 | 7.0 | 18.2 | 0.00 | 0.00 | 0.00 | 86 | 1016.8 |
| 20260510064719 | 50 | 21 | 7.0 | 18.2 | 0.00 | 0.00 | 0.00 | 86 | 1016.7 |
| 20260510064005 | 51 | 36 | 8.7 | 18.2 | 0.00 | 0.00 | 0.00 | 86 | 1016.6 |
| 20260510063505 | 50 | 48 | 9.6 | 20.0 | 0.00 | 0.00 | 0.00 | 86 | 1016.5 |
| 20260510063003 | 50 | 45 | 7.8 | 20.0 | 0.00 | 0.00 | 0.00 | 87 | 1016.7 |
| 20260510062719 | 50 | 45 | 7.8 | 20.0 | 0.00 | 0.00 | 0.00 | 87 | 1016.5 |
| 20260510062003 | 49 | 39 | 7.8 | 18.2 | 0.00 | 0.00 | 0.00 | 87 | 1016.5 |
| 20260510061505 | 49 | 39 | 6.1 | 18.2 | 0.00 | 0.00 | 0.00 | 87 | 1016.7 |
| 20260510061218 | 49 | 43 | 7.0 | 18.2 | 0.00 | 0.00 | 0.00 | 87 | 1016.5 |
| 20260510060505 | 49 | 39 | 7.0 | 20.0 | 0.00 | 0.00 | 0.00 | 87 | 1016.4 |
| 20260510060005 | 49 | 13 | 7.0 | 20.0 | 0.00 | 0.00 | 0.00 | 86 | 1016.4 |
| 20260510055503 | 49 | 17 | 6.1 | 15.6 | 0.00 | 0.00 | 0.00 | 87 | 1016.4 |
| 20260510055005 | 49 | 28 | 6.1 | 13.9 | 0.00 | 0.00 | 0.00 | 87 | 1016.3 |
| 20260510054505 | 49 | 19 | 6.1 | 13.9 | 0.00 | 0.00 | 0.00 | 87 | 1016.4 |
| 20260510054003 | 49 | 33 | 5.2 | 12.2 | 0.00 | 0.00 | 0.00 | 87 | 1016.3 |
| 20260510053503 | 49 | 31 | 4.3 | 12.2 | 0.00 | 0.00 | 0.00 | 87 | 1015.9 |
| 20260510053005 | 49 | 23 | 6.1 | 13.9 | 0.00 | 0.00 | 0.00 | 87 | 1016.2 |
| 20260510052505 | 49 | 28 | 7.8 | 13.9 | 0.00 | 0.00 | 0.00 | 87 | 1016.1 |
| 20260510052005 | 49 | 43 | 5.2 | 12.2 | 0.00 | 0.00 | 0.00 | 87 | 1016.2 |
| 20260510051718 | 49 | 41 | 6.1 | 13.9 | 0.00 | 0.00 | 0.00 | 87 | 1016.2 |
| 20260510051005 | 49 | 13 | 6.1 | 18.2 | 0.00 | 0.00 | 0.00 | 87 | 1016.4 |
| 20260510050505 | 49 | 28 | 5.2 | 15.6 | 0.00 | 0.00 | 0.00 | 87 | 1016.4 |
| 20260510050005 | 49 | 54 | 5.2 | 15.6 | 0.00 | 0.00 | 0.00 | 87 | 1016.3 |
| 20260510045505 | 49 | 38 | 4.3 | 15.6 | 0.00 | 0.00 | 0.00 | 87 | 1016.4 |
| 20260510045003 | 49 | 28 | 5.2 | 18.2 | 0.00 | 0.00 | 0.00 | 87 | 1016.4 |
| 20260510044505 | 49 | 34 | 6.1 | 18.2 | 0.00 | 0.00 | 0.00 | 87 | 1016.5 |
| 20260510044217 | 50 | 43 | 5.2 | 12.2 | 0.00 | 0.00 | 0.00 | 87 | 1016.3 |
| 20260510043504 | 50 | 43 | 4.3 | 12.2 | 0.00 | 0.00 | 0.00 | 87 | 1016.3 |
| 20260510043005 | 50 | 18 | 5.2 | 13.9 | 0.00 | 0.00 | 0.00 | 87 | 1016.1 |
| 20260510042718 | 50 | 18 | 5.2 | 13.9 | 0.00 | 0.00 | 0.00 | 87 | 1016.4 |
| 20260510042005 | 50 | 39 | 6.1 | 15.6 | 0.00 | 0.00 | 0.00 | 87 | 1016.5 |
| 20260510041503 | 50 | 44 | 6.1 | 15.6 | 0.00 | 0.00 | 0.00 | 86 | 1016.3 |
| 20260510041004 | 50 | 51 | 6.1 | 20.0 | 0.00 | 0.00 | 0.00 | 86 | 1016.4 |
| 20260510040505 | 50 | 37 | 7.0 | 20.0 | 0.00 | 0.00 | 0.00 | 86 | 1016.2 |
| 20260510040006 | 50 | 17 | 7.0 | 18.2 | 0.00 | 0.00 | 0.00 | 86 | 1016.5 |
| 20260510035505 | 50 | 33 | 7.0 | 15.6 | 0.00 | 0.00 | 0.00 | 87 | 1016.5 |
| 20260510035003 | 51 | 45 | 5.2 | 15.6 | 0.00 | 0.00 | 0.00 | 87 | 1016.5 |
| 20260510034503 | 51 | 27 | 5.2 | 13.9 | 0.00 | 0.00 | 0.00 | 87 | 1016.4 |
| 20260510034005 | 51 | 17 | 6.1 | 15.6 | 0.00 | 0.00 | 0.00 | 87 | 1016.7 |
| 20260510033505 | 51 | 27 | 7.8 | 18.2 | 0.00 | 0.00 | 0.00 | 87 | 1016.6 |
| 20260510033003 | 51 | 30 | 7.8 | 18.2 | 0.00 | 0.00 | 0.00 | 87 | 1016.8 |
| 20260510032720 | 51 | 33 | 7.8 | 18.2 | 0.00 | 0.00 | 0.00 | 88 | 1016.6 |
| 20260510032005 | 51 | 33 | 5.2 | 18.2 | 0.00 | 0.00 | 0.00 | 88 | 1016.8 |
| 20260510031505 | 51 | 43 | 6.1 | 18.2 | 0.00 | 0.00 | 0.00 | 89 | 1016.7 |
| 20260510031218 | 51 | 46 | 6.1 | 18.2 | 0.00 | 0.00 | 0.00 | 89 | 1016.5 |
| 20260510030503 | 51 | 45 | 7.0 | 20.0 | 0.00 | 0.00 | 0.00 | 89 | 1016.7 |
| 20260510030005 | 51 | 42 | 7.8 | 20.0 | 0.00 | 0.00 | 0.00 | 89 | 1016.7 |
| 20260510025505 | 51 | 46 | 7.8 | 20.0 | 0.00 | 0.00 | 0.00 | 89 | 1016.7 |
| 20260510025003 | 51 | 38 | 7.0 | 20.0 | 0.00 | 0.00 | 0.00 | 89 | 1016.7 |
| 20260510024506 | 51 | 29 | 6.1 | 20.0 | 0.00 | 0.00 | 0.00 | 89 | 1016.7 |
| 20260510024003 | 51 | 37 | 6.1 | 18.2 | 0.00 | 0.00 | 0.00 | 89 | 1016.6 |
| 20260510023510 | 51 | 36 | 7.0 | 18.2 | 0.00 | 0.00 | 0.00 | 89 | 1016.6 |
| 20260510023005 | 51 | 49 | 7.8 | 21.7 | 0.00 | 0.00 | 0.00 | 89 | 1016.6 |
| 20260510022506 | 51 | 45 | 7.8 | 21.7 | 0.00 | 0.00 | 0.00 | 89 | 1016.4 |
| 20260510022005 | 51 | 33 | 6.1 | 21.7 | 0.00 | 0.00 | 0.00 | 89 | 1016.3 |
| 20260510021505 | 51 | 24 | 7.8 | 21.7 | 0.00 | 0.00 | 0.00 | 89 | 1016.5 |
| 20260510021003 | 52 | 22 | 7.8 | 21.7 | 0.00 | 0.00 | 0.00 | 88 | 1016.4 |
| 20260510020503 | 52 | 21 | 6.1 | 20.0 | 0.00 | 0.00 | 0.00 | 88 | 1016.6 |
| 20260510020005 | 52 | 17 | 6.1 | 18.2 | 0.00 | 0.00 | 0.00 | 88 | 1016.6 |
| 20260510015505 | 52 | 25 | 6.1 | 15.6 | 0.00 | 0.00 | 0.00 | 89 | 1016.9 |
| 20260510015003 | 52 | 38 | 4.3 | 15.6 | 0.00 | 0.00 | 0.00 | 88 | 1016.8 |
| 20260510014503 | 51 | 47 | 3.5 | 15.6 | 0.00 | 0.00 | 0.00 | 88 | 1016.7 |
| 20260510014005 | 52 | 32 | 4.3 | 20.0 | 0.00 | 0.00 | 0.00 | 88 | 1016.6 |
| 20260510013504 | 52 | 12 | 6.1 | 20.0 | 0.00 | 0.00 | 0.00 | 88 | 1016.7 |
| 20260510013003 | 52 | 29 | 7.0 | 18.2 | 0.00 | 0.00 | 0.00 | 88 | 1016.6 |
| 20260510012505 | 52 | 44 | 5.2 | 20.0 | 0.00 | 0.00 | 0.00 | 89 | 1016.5 |
| 20260510012005 | 52 | 29 | 6.1 | 20.0 | 0.00 | 0.00 | 0.00 | 89 | 1016.7 |
| 20260510011503 | 52 | 30 | 7.0 | 20.0 | 0.00 | 0.00 | 0.00 | 90 | 1016.8 |
| 20260510011005 | 51 | 16 | 6.1 | 18.2 | 0.00 | 0.00 | 0.00 | 91 | 1016.7 |
| 20260510010503 | 51 | 10 | 6.1 | 18.2 | 0.00 | 0.00 | 0.00 | 92 | 1016.9 |
| 20260510010003 | 51 | 17 | 5.2 | 12.2 | 0.00 | 0.00 | 0.00 | 93 | 1016.6 |
| 20260510005505 | 51 | 22 | 5.2 | 15.6 | 0.00 | 0.00 | 0.00 | 93 | 1016.6 |
| 20260510005003 | 51 | 23 | 5.2 | 15.6 | 0.00 | 0.00 | 0.00 | 93 | 1016.5 |
| 20260510004505 | 51 | 27 | 5.2 | 15.6 | 0.00 | 0.00 | 0.00 | 93 | 1016.6 |
| 20260510004003 | 51 | 29 | 4.3 | 15.6 | 0.00 | 0.00 | 0.00 | 93 | 1016.7 |
| 20260510003506 | 51 | 36 | 3.5 | 12.2 | 0.00 | 0.00 | 0.00 | 93 | 1016.6 |
| 20260510003004 | 51 | 25 | 4.3 | 12.2 | 0.00 | 0.00 | 0.00 | 93 | 1017.0 |
| 20260510002504 | 51 | 14 | 4.3 | 12.2 | 0.00 | 0.00 | 0.00 | 93 | 1016.7 |
| 20260510002003 | 51 | 24 | 3.5 | 13.9 | 0.00 | 0.00 | 0.00 | 93 | 1016.7 |
| 20260510001505 | 51 | 29 | 4.3 | 15.6 | 0.00 | 0.00 | 0.00 | 93 | 1016.8 |
| 20260510001005 | 51 | 19 | 6.1 | 15.6 | 0.00 | 0.00 | 0.00 | 93 | 1017.0 |
| 20260510000718 | 51 | 25 | 5.2 | 18.2 | 0.00 | 0.00 | 0.00 | 93 | 1016.8 |
| 20260510000004 | 51 | 13 | 5.2 | 18.2 | 0.00 | 0.00 | 0.00 | 93 | 1016.8 |
| 20260509235503 | 51 | 10 | 5.2 | 13.9 | 0.00 | 0.00 | 0.00 | 93 | 1016.7 |
| 20260509235003 | 51 | 18 | 6.1 | 15.6 | 0.00 | 0.00 | 0.00 | 93 | 1016.5 |
| 20260509234505 | 51 | 21 | 7.8 | 21.7 | 0.00 | 0.00 | 0.00 | 93 | 1016.7 |
| 20260509234005 | 51 | 25 | 7.8 | 21.7 | 0.00 | 0.00 | 0.00 | 93 | 1016.7 |
| 20260509233503 | 51 | 40 | 7.0 | 18.2 | 0.00 | 0.00 | 0.00 | 93 | 1016.5 |
| 20260509233003 | 51 | 35 | 7.0 | 18.2 | 0.00 | 0.00 | 0.00 | 93 | 1016.8 |
| 20260509232505 | 51 | 23 | 7.8 | 20.0 | 0.00 | 0.00 | 0.00 | 93 | 1016.7 |
| 20260509232003 | 51 | 27 | 8.7 | 20.0 | 0.00 | 0.00 | 0.00 | 93 | 1017.0 |
| 20260509231505 | 51 | 26 | 8.7 | 18.2 | 0.00 | 0.00 | 0.00 | 93 | 1016.9 |
| 20260509231005 | 51 | 33 | 8.7 | 18.2 | 0.00 | 0.00 | 0.00 | 93 | 1016.8 |
| 20260509230505 | 51 | 22 | 9.6 | 18.2 | 0.00 | 0.00 | 0.00 | 93 | 1017.0 |
| 20260509230217 | 51 | 17 | 8.7 | 20.0 | 0.00 | 0.00 | 0.00 | 93 | 1016.9 |
| 20260509225505 | 51 | 23 | 7.0 | 20.0 | 0.00 | 0.00 | 0.00 | 93 | 1017.0 |
| 20260509225005 | 51 | 27 | 7.8 | 18.2 | 0.00 | 0.00 | 0.00 | 93 | 1016.9 |
| 20260509224505 | 51 | 12 | 9.6 | 21.7 | 0.00 | 0.00 | 0.00 | 93 | 1016.8 |
| 20260509224005 | 51 | 22 | 7.8 | 21.7 | 0.00 | 0.00 | 0.00 | 93 | 1017.0 |
| 20260509223505 | 51 | 36 | 7.8 | 18.2 | 0.00 | 0.00 | 0.00 | 92 | 1016.8 |
| 20260509223219 | 51 | 35 | 7.0 | 18.2 | 0.00 | 0.00 | 0.00 | 92 | 1016.8 |
| 20260509222503 | 51 | 37 | 6.1 | 13.9 | 0.00 | 0.00 | 0.00 | 92 | 1017.0 |
| 20260509222005 | 51 | 35 | 6.1 | 18.2 | 0.00 | 0.00 | 0.00 | 92 | 1016.9 |
| 20260509221503 | 51 | 48 | 6.1 | 23.5 | 0.00 | 0.00 | 0.00 | 92 | 1016.9 |
| 20260509221219 | 51 | 43 | 6.1 | 23.5 | 0.00 | 0.00 | 0.00 | 92 | 1016.8 |
| 20260509220718 | 51 | 32 | 7.0 | 23.5 | 0.00 | 0.00 | 0.00 | 92 | 1016.6 |
| 20260509220005 | 51 | 44 | 7.0 | 23.5 | 0.00 | 0.00 | 0.00 | 91 | 1016.6 |
| 20260509215720 | 51 | 24 | 7.0 | 21.7 | 0.00 | 0.00 | 0.00 | 91 | 1016.7 |
| 20260509215003 | 51 | 10 | 8.7 | 21.7 | 0.00 | 0.00 | 0.00 | 91 | 1016.6 |
| 20260509214505 | 51 | 9 | 8.7 | 21.7 | 0.00 | 0.00 | 0.00 | 91 | 1016.5 |